TimeCST,TemperatureF,Dew PointF,Humidity,Sea Level PressureIn,VisibilityMPH,Wind Direction,Wind SpeedMPH,Gust SpeedMPH,PrecipitationIn,Events,Conditions,WindDirDegrees,DateUTC
12:00 AM,66.2,64.4,94,30.24,6.2,North,11.5,-,N/A,,Light Drizzle,360,2013-10-06 06:00:00
1:00 AM,66.2,64.4,94,30.24,6.2,North,11.5,-,N/A,,Mostly Cloudy,360,2013-10-06 07:00:00
2:00 AM,66.2,64.4,94,30.21,6.2,North,9.2,-,N/A,,Mostly Cloudy,360,2013-10-06 08:00:00
3:00 AM,64.4,62.6,94,30.21,6.2,North,11.5,-,N/A,,Scattered Clouds,360,2013-10-06 09:00:00
4:00 AM,64.4,62.6,94,30.21,6.2,North,11.5,-,N/A,,Scattered Clouds,360,2013-10-06 10:00:00
5:00 AM,64.4,62.6,94,30.24,6.2,North,6.9,-,N/A,,Scattered Clouds,360,2013-10-06 11:00:00
6:00 AM,62.6,62.6,100,30.24,6.2,North,4.6,-,N/A,,Scattered Clouds,360,2013-10-06 12:00:00
6:30 AM,-9999,-9999,N/A,-9999,1.2,North,6.9,-,N/A,,Mostly Cloudy,360,2013-10-06 12:30:00
6:35 AM,-9999,-9999,N/A,-9999,0.6,North,6.9,-,N/A,,Overcast,360,2013-10-06 12:35:00
7:00 AM,62.6,62.6,100,30.27,0.6,North,4.6,-,N/A,,Mostly Cloudy,360,2013-10-06 13:00:00
7:08 AM,-9999,-9999,N/A,-9999,6.2,North,4.6,-,N/A,,Mostly Cloudy,360,2013-10-06 13:08:00
8:00 AM,68.0,64.4,88,30.27,6.2,North,4.6,-,N/A,,Mostly Cloudy,360,2013-10-06 14:00:00
9:00 AM,71.6,62.6,73,30.27,6.2,North,6.9,-,N/A,,Mostly Cloudy,360,2013-10-06 15:00:00
10:00 AM,71.6,64.4,78,30.27,6.2,NE,6.9,-,N/A,,Mostly Cloudy,40,2013-10-06 16:00:00
11:00 AM,77.0,62.6,61,30.24,6.2,NE,6.9,-,N/A,,Mostly Cloudy,40,2013-10-06 17:00:00
12:00 PM,78,64,54,29.86,25,North,4.6,,,,Partly Cloudy,0,2013-10-06 18:00:00
12:00 PM,78.8,64.4,61,30.24,6.2,North,4.6,-,N/A,,Mostly Cloudy,360,2013-10-06 18:00:00
1:00 PM,75.2,64.4,69,30.21,6.2,South,9.2,-,N/A,Thunderstorm,Thunderstorm,170,2013-10-06 19:00:00
2:00 PM,69.8,59.0,68,30.18,6.2,SSE,5.8,-,N/A,Thunderstorm,Thunderstorm,160,2013-10-06 20:00:00
2:30 PM,-9999,-9999,N/A,-9999,3.1,SSE,4.6,-,N/A,Rain-Thunderstorm,Thunderstorms and Rain,160,2013-10-06 20:30:00
2:38 PM,-9999,-9999,N/A,-9999,0.6,Variable,3.5,-,N/A,Rain-Thunderstorm,Thunderstorms and Rain,0,2013-10-06 20:38:00
3:00 PM,66.2,62.6,88,30.18,5.0,Variable,3.5,-,N/A,Rain-Thunderstorm,Thunderstorms and Rain,0,2013-10-06 21:00:00
3:12 PM,-9999,-9999,N/A,-9999,6.2,SSW,5.8,-,N/A,,Mostly Cloudy,200,2013-10-06 21:12:00
3:23 PM,-9999,-9999,N/A,-9999,-9999.0,North,-9999.0,-,N/A,,Unknown,0,2013-10-06 21:23:00
4:00 PM,68.0,66.2,94,30.18,5.0,SSW,5.8,-,N/A,,Mostly Cloudy,200,2013-10-06 22:00:00
4:40 PM,-9999,-9999,N/A,-9999,6.2,SSW,6.9,-,N/A,,Light Drizzle,200,2013-10-06 22:40:00
5:00 PM,68.0,66.2,94,30.18,6.2,SSW,6.9,-,N/A,,Light Drizzle,200,2013-10-06 23:00:00
6:00 PM,66.2,64.4,94,30.21,3.1,South,4.6,-,N/A,,Mostly Cloudy,180,2013-10-07 00:00:00
7:00 PM,66.2,64.4,94,30.24,2.5,Variable,3.5,-,N/A,,Mostly Cloudy,0,2013-10-07 01:00:00
8:00 PM,66.2,62.6,88,30.24,3.7,Calm,Calm,-,N/A,,Mostly Cloudy,0,2013-10-07 02:00:00
9:00 PM,66.2,64.4,94,30.27,3.1,Calm,Calm,-,N/A,,Overcast,0,2013-10-07 03:00:00
10:00 PM,66.2,64.4,94,30.27,2.5,Variable,3.5,-,N/A,,Mostly Cloudy,0,2013-10-07 04:00:00
11:00 PM,66.2,64.4,94,30.27,1.9,Calm,Calm,-,N/A,,Mostly Cloudy,0,2013-10-07 05:00:00